This is the latest recevied weather packets stored in our database for station/object HB9EYW-6. If no packets are shown the sender has not sent any weather packets the latest 10 day(s).
| Time | Temp. | Humidity | Pressure | Rain* | Wind** | Luminosity | Snow |
|---|---|---|---|---|---|---|---|
| 1778150704 | 16.67° C | 48% | 0 hPa | 0 mm | - | - | - |
| 1778150404 | 16.67° C | 51% | 0 hPa | 0 mm | - | - | - |
| 1778150104 | 16.67° C | 50% | 0 hPa | 0 mm | - | - | - |
| 1778149804 | 16.11° C | 50% | 0 hPa | 0 mm | - | - | - |
| 1778149504 | 16.11° C | 50% | 0 hPa | 0 mm | - | - | - |
| 1778149204 | 15.56° C | 52% | 0 hPa | 0 mm | - | - | - |
| 1778148904 | 15.56° C | 51% | 0 hPa | 0 mm | - | - | - |
| 1778148604 | 15.56° C | 55% | 0 hPa | 0 mm | - | - | - |
| 1778148304 | 15.56° C | 53% | 0 hPa | 0 mm | - | - | - |
| 1778148004 | 15.56° C | 53% | 0 hPa | 0 mm | - | - | - |
| 1778147704 | 15.56° C | 53% | 0 hPa | 0 mm | - | - | - |
| 1778147404 | 16.11° C | 53% | 0 hPa | 0 mm | - | - | - |
| 1778147104 | 16.67° C | 54% | 0 hPa | 0 mm | - | - | - |
| 1778146804 | 16.67° C | 55% | 0 hPa | 0 mm | - | - | - |
| 1778146504 | 16.67° C | 56% | 0 hPa | 0 mm | - | - | - |
| 1778146204 | 15.56° C | 66% | 0 hPa | 0 mm | - | - | - |
| 1778145904 | 15° C | 69% | 0 hPa | 0 mm | - | - | - |
| 1778145604 | 13.89° C | 68% | 0 hPa | 0 mm | - | - | - |
| 1778145304 | 13.89° C | 69% | 0 hPa | 0 mm | - | - | - |
| 1778145004 | 13.33° C | 70% | 0 hPa | 0 mm | - | - | - |
| 1778144704 | 13.33° C | 70% | 0 hPa | 0 mm | - | - | - |
| 1778144404 | 13.33° C | 70% | 0 hPa | 0 mm | - | - | - |
| 1778144104 | 13.33° C | 70% | 0 hPa | 0 mm | - | - | - |
| 1778143804 | 13.33° C | 70% | 0 hPa | 0 mm | - | - | - |
| 1778143504 | 13.33° C | 70% | 0 hPa | 0 mm | - | - | - |
* Rain latest hour (hover to see other rain measurements)
** Current wind speed in m/s (hover to see current wind gust speed)